Time,TemperatureF,DewpointF,PressureIn,WindDirection,WindDirectionDegrees,WindSpeedMPH,WindSpeedGustMPH,Humidity,HourlyPrecipIn,Conditions,Clouds,dailyrainin,SoftwareType,DateUTC
2013-05-17 00:04:00,54.0,40.4,30.05,NE,42,0.0,0.0,60,0.00,,,0.00,VWS V12.07,2013-05-17 05:04:00,
2013-05-17 00:09:00,53.8,40.7,30.05,NNE,33,0.0,2.0,61,0.00,,,0.00,VWS V12.07,2013-05-17 05:09:00,
2013-05-17 00:14:00,53.8,41.1,30.05,NNE,27,1.0,2.0,62,0.00,,,0.00,VWS V12.07,2013-05-17 05:14:00,
2013-05-17 00:24:00,53.8,41.1,30.05,NNE,25,0.0,2.0,62,0.00,,,0.00,VWS V12.07,2013-05-17 05:24:00,
2013-05-17 00:29:00,53.8,41.1,30.06,NNE,25,0.0,2.0,62,0.00,,,0.00,VWS V12.07,2013-05-17 05:29:00,
2013-05-17 00:34:00,53.8,41.1,30.06,NNE,25,0.0,0.0,62,0.00,,,0.00,VWS V12.07,2013-05-17 05:34:00,
2013-05-17 00:39:00,53.7,41.4,30.06,NNE,25,0.0,1.0,63,0.00,,,0.00,VWS V12.07,2013-05-17 05:39:00,
2013-05-17 00:44:00,53.5,41.2,30.05,NNE,25,0.0,1.0,63,0.00,,,0.00,VWS V12.07,2013-05-17 05:44:00,
2013-05-17 00:49:00,53.4,41.1,30.06,NNE,25,0.0,1.0,63,0.00,,,0.00,VWS V12.07,2013-05-17 05:49:00,
2013-05-17 00:54:00,53.3,41.5,30.06,NNE,25,0.0,1.0,64,0.00,,,0.00,VWS V12.07,2013-05-17 05:54:00,
2013-05-17 00:59:00,53.2,41.3,30.06,ENE,71,1.0,2.0,64,0.00,,,0.00,VWS V12.07,2013-05-17 05:59:00,
2013-05-17 01:04:00,53.2,41.3,30.06,ENE,67,0.0,1.0,64,0.00,,,0.00,VWS V12.07,2013-05-17 06:04:00,
2013-05-17 01:09:00,53.2,41.0,30.06,NNE,12,0.0,2.0,63,0.00,,,0.00,VWS V12.07,2013-05-17 06:09:00,
2013-05-17 01:14:00,53.2,41.0,30.05,NNE,12,0.0,2.0,63,0.00,,,0.00,VWS V12.07,2013-05-17 06:14:00,
2013-05-17 01:19:00,53.0,40.3,30.05,NNE,20,0.0,2.0,62,0.00,,,0.00,VWS V12.07,2013-05-17 06:19:00,
2013-05-17 01:29:00,52.4,40.2,30.05,NNE,19,0.0,2.0,63,0.00,,,0.00,VWS V12.07,2013-05-17 06:29:00,
2013-05-17 01:34:00,52.1,39.9,30.05,NNE,21,0.0,1.0,63,0.00,,,0.00,VWS V12.07,2013-05-17 06:34:00,
2013-05-17 01:39:00,51.8,39.6,30.05,NNE,21,0.0,1.0,63,0.00,,,0.00,VWS V12.07,2013-05-17 06:39:00,
2013-05-17 01:49:00,51.4,39.2,30.05,ENE,67,0.0,2.0,63,0.00,,,0.00,VWS V12.07,2013-05-17 06:49:00,
2013-05-17 01:54:00,51.2,39.0,30.05,ENE,67,0.0,2.0,63,0.00,,,0.00,VWS V12.07,2013-05-17 06:54:00,
2013-05-17 01:59:00,51.0,38.9,30.04,ENE,67,0.0,2.0,63,0.00,,,0.00,VWS V12.07,2013-05-17 06:59:00,
2013-05-17 02:09:00,50.8,39.1,30.05,NW,323,0.0,1.0,64,0.00,,,0.00,VWS V12.07,2013-05-17 07:09:00,
2013-05-17 02:14:00,50.5,38.8,30.04,NNW,330,1.0,2.0,64,0.00,,,0.00,VWS V12.07,2013-05-17 07:14:00,
2013-05-17 02:19:00,50.4,39.1,30.04,ESE,114,0.0,3.0,65,0.00,,,0.00,VWS V12.07,2013-05-17 07:19:00,
2013-05-17 02:24:00,50.2,38.5,30.04,ESE,114,0.0,3.0,64,0.00,,,0.00,VWS V12.07,2013-05-17 07:24:00,
2013-05-17 02:34:00,49.8,38.5,30.05,ESE,114,0.0,0.0,65,0.00,,,0.00,VWS V12.07,2013-05-17 07:34:00,
2013-05-17 02:39:00,49.6,38.7,30.05,East,94,1.0,1.0,66,0.00,,,0.00,VWS V12.07,2013-05-17 07:39:00,
2013-05-17 02:44:00,49.7,39.6,30.05,NE,36,0.0,3.0,68,0.00,,,0.00,VWS V12.07,2013-05-17 07:44:00,
2013-05-17 02:49:00,50.3,40.2,30.05,NNE,28,1.0,3.0,68,0.00,,,0.00,VWS V12.07,2013-05-17 07:49:00,
2013-05-17 02:54:00,50.6,40.1,30.04,NNE,28,0.0,3.0,67,0.00,,,0.00,VWS V12.07,2013-05-17 07:54:00,
2013-05-17 03:04:00,50.1,39.2,30.05,NNE,28,0.0,1.0,66,0.00,,,0.00,VWS V12.07,2013-05-17 08:04:00,
2013-05-17 03:14:00,49.9,39.4,30.05,NNE,29,0.0,3.0,67,0.00,,,0.00,VWS V12.07,2013-05-17 08:14:00,
2013-05-17 03:19:00,50.1,39.6,30.05,NNE,30,1.0,3.0,67,0.00,,,0.00,VWS V12.07,2013-05-17 08:19:00,
2013-05-17 03:24:00,50.0,39.5,30.05,NNE,29,0.0,3.0,67,0.00,,,0.00,VWS V12.07,2013-05-17 08:24:00,
2013-05-17 03:34:00,49.3,38.8,30.06,NNE,30,0.0,0.0,67,0.00,,,0.00,VWS V12.07,2013-05-17 08:34:00,
2013-05-17 03:39:00,49.2,39.1,30.06,NNE,29,0.0,1.0,68,0.00,,,0.00,VWS V12.07,2013-05-17 08:39:00,
2013-05-17 03:44:00,49.2,39.5,30.06,NNE,28,0.0,2.0,69,0.00,,,0.00,VWS V12.07,2013-05-17 08:44:00,
2013-05-17 03:49:00,49.4,39.7,30.06,NNE,28,1.0,2.0,69,0.00,,,0.00,VWS V12.07,2013-05-17 08:49:00,
2013-05-17 03:59:00,49.6,39.5,30.06,NNE,28,0.0,2.0,68,0.00,,,0.00,VWS V12.07,2013-05-17 08:59:00,
2013-05-17 04:04:00,49.6,39.9,30.06,NNE,28,0.0,2.0,69,0.00,,,0.00,VWS V12.07,2013-05-17 09:04:00,
2013-05-17 04:14:00,49.5,39.8,30.06,NNE,28,1.0,2.0,69,0.00,,,0.00,VWS V12.07,2013-05-17 09:14:00,
2013-05-17 04:19:00,49.5,40.1,30.06,NNE,28,0.0,2.0,70,0.00,,,0.00,VWS V12.07,2013-05-17 09:19:00,
2013-05-17 04:29:00,49.4,39.7,30.07,NNE,29,0.0,2.0,69,0.00,,,0.00,VWS V12.07,2013-05-17 09:29:00,
2013-05-17 04:34:00,49.3,39.9,30.07,NNE,28,0.0,2.0,70,0.00,,,0.00,VWS V12.07,2013-05-17 09:34:00,
2013-05-17 04:39:00,49.2,39.5,30.07,NNE,28,0.0,2.0,69,0.00,,,0.00,VWS V12.07,2013-05-17 09:39:00,
2013-05-17 04:49:00,49.2,39.5,30.08,NNE,28,0.0,2.0,69,0.00,,,0.00,VWS V12.07,2013-05-17 09:49:00,
2013-05-17 04:54:00,49.2,39.8,30.09,NNE,28,0.0,2.0,70,0.00,,,0.00,VWS V12.07,2013-05-17 09:54:00,
2013-05-17 04:59:00,49.2,39.5,30.10,NNE,28,0.0,2.0,69,0.00,,,0.00,VWS V12.07,2013-05-17 09:59:00,
2013-05-17 05:09:00,49.2,40.2,30.10,NNE,28,0.0,1.0,71,0.00,,,0.00,VWS V12.07,2013-05-17 10:09:00,
2013-05-17 05:19:00,49.1,40.1,30.10,NNE,28,0.0,1.0,71,0.00,,,0.00,VWS V12.07,2013-05-17 10:19:00,
2013-05-17 05:24:00,49.1,40.5,30.09,NNE,28,2.0,2.0,72,0.00,,,0.00,VWS V12.07,2013-05-17 10:24:00,
2013-05-17 05:34:00,49.5,40.1,30.10,NNE,32,1.0,2.0,70,0.00,,,0.00,VWS V12.07,2013-05-17 10:34:00,
2013-05-17 05:39:00,49.6,40.2,30.10,NNE,32,0.0,3.0,70,0.00,,,0.00,VWS V12.07,2013-05-17 10:39:00,
2013-05-17 05:44:00,49.5,40.1,30.10,NNE,32,0.0,3.0,70,0.00,,,0.00,VWS V12.07,2013-05-17 10:44:00,
2013-05-17 05:49:00,49.4,40.4,30.10,NNE,32,0.0,3.0,71,0.00,,,0.00,VWS V12.07,2013-05-17 10:49:00,
2013-05-17 05:54:00,49.4,40.8,30.10,NNE,32,0.0,3.0,72,0.00,,,0.00,VWS V12.07,2013-05-17 10:54:00,
2013-05-17 05:59:00,49.4,40.8,30.10,NNE,33,1.0,3.0,72,0.00,,,0.00,VWS V12.07,2013-05-17 10:59:00,
2013-05-17 06:09:00,49.4,40.8,30.10,NNE,33,1.0,3.0,72,0.00,,,0.00,VWS V12.07,2013-05-17 11:09:00,
2013-05-17 06:14:00,49.4,40.4,30.10,NNE,33,0.0,3.0,71,0.00,,,0.00,VWS V12.07,2013-05-17 11:14:00,
2013-05-17 06:19:00,49.3,40.3,30.10,NNE,33,0.0,3.0,71,0.00,,,0.00,VWS V12.07,2013-05-17 11:19:00,
2013-05-17 06:24:00,49.2,40.2,30.10,NE,35,0.0,3.0,71,0.00,,,0.00,VWS V12.07,2013-05-17 11:24:00,
2013-05-17 06:29:00,49.1,39.8,30.11,NE,36,0.0,3.0,70,0.00,,,0.00,VWS V12.07,2013-05-17 11:29:00,
2013-05-17 06:34:00,49.1,39.4,30.11,NE,36,0.0,0.0,69,0.00,,,0.00,VWS V12.07,2013-05-17 11:34:00,
2013-05-17 06:39:00,49.1,39.8,30.11,NE,36,0.0,1.0,70,0.00,,,0.00,VWS V12.07,2013-05-17 11:39:00,
2013-05-17 06:44:00,49.1,39.4,30.11,NE,36,0.0,1.0,69,0.00,,,0.00,VWS V12.07,2013-05-17 11:44:00,
2013-05-17 06:49:00,49.0,39.7,30.11,NE,36,0.0,1.0,70,0.00,,,0.00,VWS V12.07,2013-05-17 11:49:00,
2013-05-17 06:54:00,49.0,39.3,30.11,NE,36,0.0,1.0,69,0.00,,,0.00,VWS V12.07,2013-05-17 11:54:00,
2013-05-17 07:04:00,49.0,39.3,30.12,NE,36,0.0,1.0,69,0.00,,,0.00,VWS V12.07,2013-05-17 12:04:00,
2013-05-17 07:09:00,49.0,39.3,30.12,NE,36,0.0,1.0,69,0.00,,,0.00,VWS V12.07,2013-05-17 12:09:00,
2013-05-17 07:19:00,49.2,39.5,30.12,ENE,60,0.0,2.0,69,0.00,,,0.00,VWS V12.07,2013-05-17 12:19:00,
2013-05-17 07:24:00,49.4,39.3,30.13,ENE,60,0.0,2.0,68,0.00,,,0.00,VWS V12.07,2013-05-17 12:24:00,
2013-05-17 07:29:00,49.5,39.0,30.13,ENE,63,0.0,2.0,67,0.00,,,0.00,VWS V12.07,2013-05-17 12:29:00,
2013-05-17 07:34:00,49.6,39.1,30.14,ENE,63,1.0,2.0,67,0.00,,,0.00,VWS V12.07,2013-05-17 12:34:00,
2013-05-17 07:39:00,49.7,38.8,30.14,NE,47,1.0,3.0,66,0.00,,,0.00,VWS V12.07,2013-05-17 12:39:00,
2013-05-17 07:49:00,49.7,38.4,30.14,NE,44,1.0,3.0,65,0.00,,,0.00,VWS V12.07,2013-05-17 12:49:00,
2013-05-17 07:54:00,49.8,38.5,30.14,NE,42,0.0,3.0,65,0.00,,,0.00,VWS V12.07,2013-05-17 12:54:00,
2013-05-17 07:59:00,49.9,38.6,30.14,NE,38,2.0,3.0,65,0.00,,,0.00,VWS V12.07,2013-05-17 12:59:00,
2013-05-17 08:04:00,50.1,39.2,30.14,NE,40,2.0,3.0,66,0.00,,,0.00,VWS V12.07,2013-05-17 13:04:00,
2013-05-17 08:09:00,50.1,39.2,30.14,NE,40,0.0,3.0,66,0.00,,,0.00,VWS V12.07,2013-05-17 13:09:00,
2013-05-17 08:14:00,50.2,39.3,30.14,NE,40,0.0,3.0,66,0.00,,,0.00,VWS V12.07,2013-05-17 13:14:00,
2013-05-17 08:19:00,50.4,39.1,30.14,NE,41,1.0,3.0,65,0.00,,,0.00,VWS V12.07,2013-05-17 13:19:00,
2013-05-17 08:24:00,50.5,38.4,30.14,NE,34,0.0,3.0,63,0.00,,,0.00,VWS V12.07,2013-05-17 13:24:00,
2013-05-17 08:34:00,50.8,39.5,30.14,NE,36,0.0,2.0,65,0.00,,,0.00,VWS V12.07,2013-05-17 13:34:00,
2013-05-17 08:44:00,50.7,39.8,30.14,NE,35,1.0,3.0,66,0.00,,,0.00,VWS V12.07,2013-05-17 13:44:00,
2013-05-17 08:49:00,50.7,39.8,30.14,NE,35,1.0,3.0,66,0.00,,,0.00,VWS V12.07,2013-05-17 13:49:00,
2013-05-17 08:54:00,50.9,39.6,30.14,NE,46,2.0,3.0,65,0.00,,,0.00,VWS V12.07,2013-05-17 13:54:00,
2013-05-17 08:59:00,51.0,39.7,30.14,NE,46,3.0,3.0,65,0.00,,,0.00,VWS V12.07,2013-05-17 13:59:00,
2013-05-17 09:09:00,51.4,40.0,30.14,NE,44,2.0,3.0,65,0.00,,,0.00,VWS V12.07,2013-05-17 14:09:00,
2013-05-17 09:14:00,51.6,39.8,30.14,NNE,29,3.0,4.0,64,0.00,,,0.00,VWS V12.07,2013-05-17 14:14:00,
2013-05-17 09:19:00,51.9,40.1,30.14,NNE,20,1.0,4.0,64,0.00,,,0.00,VWS V12.07,2013-05-17 14:19:00,
2013-05-17 09:24:00,52.1,40.3,30.14,NNE,22,2.0,4.0,64,0.00,,,0.00,VWS V12.07,2013-05-17 14:24:00,
2013-05-17 09:29:00,52.4,39.8,30.14,NNE,18,2.0,4.0,62,0.00,,,0.00,VWS V12.07,2013-05-17 14:29:00,
2013-05-17 09:39:00,53.2,40.5,30.14,NNE,32,2.0,5.0,62,0.00,,,0.00,VWS V12.07,2013-05-17 14:39:00,
2013-05-17 09:44:00,53.5,40.0,30.14,NNE,31,1.0,5.0,60,0.00,,,0.00,VWS V12.07,2013-05-17 14:44:00,
2013-05-17 09:49:00,53.9,41.2,30.13,NNE,14,2.0,5.0,62,0.00,,,0.00,VWS V12.07,2013-05-17 14:49:00,
2013-05-17 09:54:00,54.2,40.2,30.13,NE,56,1.0,5.0,59,0.00,,,0.00,VWS V12.07,2013-05-17 14:54:00,
2013-05-17 09:59:00,54.7,41.1,30.13,NE,41,4.0,5.0,60,0.00,,,0.00,VWS V12.07,2013-05-17 14:59:00,
2013-05-17 10:04:00,54.9,40.4,30.13,NE,36,2.0,4.0,58,0.00,,,0.00,VWS V12.07,2013-05-17 15:04:00,
2013-05-17 10:09:00,55.3,40.3,30.12,NE,34,1.0,4.0,57,0.00,,,0.00,VWS V12.07,2013-05-17 15:09:00,
2013-05-17 10:14:00,55.8,40.8,30.12,NNE,31,4.0,4.0,57,0.00,,,0.00,VWS V12.07,2013-05-17 15:14:00,
2013-05-17 10:19:00,56.3,40.4,30.12,NE,49,2.0,4.0,55,0.00,,,0.00,VWS V12.07,2013-05-17 15:19:00,
2013-05-17 10:24:00,57.2,40.7,30.12,NE,36,3.0,5.0,54,0.00,,,0.00,VWS V12.07,2013-05-17 15:24:00,
2013-05-17 10:29:00,58.0,41.0,30.12,NNE,29,3.0,5.0,53,0.00,,,0.00,VWS V12.07,2013-05-17 15:29:00,
2013-05-17 10:34:00,59.0,39.9,30.12,NNE,22,3.0,4.0,49,0.00,,,0.00,VWS V12.07,2013-05-17 15:34:00,
2013-05-17 10:39:00,59.4,40.8,30.12,NNE,32,2.0,5.0,50,0.00,,,0.00,VWS V12.07,2013-05-17 15:39:00,
2013-05-17 10:44:00,59.5,40.3,30.12,NNE,30,1.0,5.0,49,0.00,,,0.00,VWS V12.07,2013-05-17 15:44:00,
2013-05-17 10:49:00,59.6,40.4,30.12,North,360,0.0,5.0,49,0.00,,,0.00,VWS V12.07,2013-05-17 15:49:00,
2013-05-17 10:59:00,60.0,39.7,30.12,NNE,29,1.0,5.0,47,0.00,,,0.00,VWS V12.07,2013-05-17 15:59:00,
2013-05-17 11:04:00,60.5,40.7,30.12,NNE,16,2.0,4.0,48,0.00,,,0.00,VWS V12.07,2013-05-17 16:04:00,
2013-05-17 11:09:00,61.3,40.4,30.12,NNE,12,1.0,4.0,46,0.00,,,0.00,VWS V12.07,2013-05-17 16:09:00,
2013-05-17 11:14:00,61.9,40.9,30.12,NE,40,3.0,5.0,46,0.00,,,0.00,VWS V12.07,2013-05-17 16:14:00,
2013-05-17 11:19:00,61.4,41.0,30.12,NNE,31,3.0,6.0,47,0.00,,,0.00,VWS V12.07,2013-05-17 16:19:00,
2013-05-17 11:24:00,61.1,41.3,30.12,NNE,26,3.0,6.0,48,0.00,,,0.00,VWS V12.07,2013-05-17 16:24:00,
2013-05-17 11:34:00,61.8,41.4,30.12,NNE,24,3.0,3.0,47,0.00,,,0.00,VWS V12.07,2013-05-17 16:34:00,
2013-05-17 11:39:00,62.5,42.0,30.11,NE,37,4.0,6.0,47,0.00,,,0.00,VWS V12.07,2013-05-17 16:39:00,
2013-05-17 11:44:00,63.2,42.7,30.11,North,360,1.0,6.0,47,0.00,,,0.00,VWS V12.07,2013-05-17 16:44:00,
2013-05-17 11:49:00,64.1,42.3,30.11,West,259,3.0,6.0,45,0.00,,,0.00,VWS V12.07,2013-05-17 16:49:00,
2013-05-17 11:54:00,64.8,43.0,30.11,NE,42,4.0,6.0,45,0.00,,,0.00,VWS V12.07,2013-05-17 16:54:00,
2013-05-17 11:59:00,64.7,42.3,30.11,WNW,286,0.0,6.0,44,0.00,,,0.00,VWS V12.07,2013-05-17 16:59:00,
2013-05-17 12:04:00,64.8,43.0,30.11,NE,53,4.0,5.0,45,0.00,,,0.00,VWS V12.07,2013-05-17 17:04:00,
2013-05-17 12:14:00,66.0,42.9,30.11,NE,38,1.0,5.0,43,0.00,,,0.00,VWS V12.07,2013-05-17 17:14:00,
2013-05-17 12:19:00,65.9,42.8,30.11,NNE,14,1.0,5.0,43,0.00,,,0.00,VWS V12.07,2013-05-17 17:19:00,
2013-05-17 12:24:00,65.7,43.2,30.11,SSE,157,0.0,5.0,44,0.00,,,0.00,VWS V12.07,2013-05-17 17:24:00,
2013-05-17 12:29:00,66.5,43.9,30.11,NE,53,2.0,5.0,44,0.00,,,0.00,VWS V12.07,2013-05-17 17:29:00,
2013-05-17 12:34:00,67.1,44.5,30.11,NE,38,1.0,1.0,44,0.00,,,0.00,VWS V12.07,2013-05-17 17:34:00,
2013-05-17 12:44:00,68.3,43.1,30.10,NE,36,2.0,4.0,40,0.00,,,0.00,VWS V12.07,2013-05-17 17:44:00,
2013-05-17 12:54:00,68.0,44.1,30.10,ESE,118,2.0,7.0,42,0.00,,,0.00,VWS V12.07,2013-05-17 17:54:00,
2013-05-17 12:59:00,68.4,44.4,30.09,ESE,104,1.0,7.0,42,0.00,,,0.00,VWS V12.07,2013-05-17 17:59:00,
2013-05-17 13:04:00,68.8,46.6,30.09,NE,50,0.0,3.0,45,0.00,,,0.00,VWS V12.07,2013-05-17 18:04:00,
2013-05-17 13:14:00,69.9,46.4,30.09,ENE,65,2.0,4.0,43,0.00,,,0.00,VWS V12.07,2013-05-17 18:14:00,
2013-05-17 13:19:00,69.7,45.6,30.09,ENE,78,2.0,5.0,42,0.00,,,0.00,VWS V12.07,2013-05-17 18:19:00,
2013-05-17 13:24:00,69.5,47.2,30.09,North,360,0.0,5.0,45,0.00,,,0.00,VWS V12.07,2013-05-17 18:24:00,
2013-05-17 13:29:00,69.8,46.9,30.09,West,260,3.0,8.0,44,0.00,,,0.00,VWS V12.07,2013-05-17 18:29:00,
2013-05-17 13:34:00,69.8,46.9,30.09,SE,127,0.0,3.0,44,0.00,,,0.00,VWS V12.07,2013-05-17 18:34:00,
2013-05-17 13:39:00,69.8,47.5,30.08,NE,51,1.0,4.0,45,0.00,,,0.00,VWS V12.07,2013-05-17 18:39:00,
2013-05-17 13:44:00,70.2,48.5,30.08,NNW,340,0.0,7.0,46,0.00,,,0.00,VWS V12.07,2013-05-17 18:44:00,
2013-05-17 13:49:00,70.4,48.7,30.08,South,178,3.0,7.0,46,0.00,,,0.00,VWS V12.07,2013-05-17 18:49:00,
2013-05-17 13:54:00,69.9,48.2,30.09,WNW,284,2.0,7.0,46,0.00,,,0.00,VWS V12.07,2013-05-17 18:54:00,
2013-05-17 13:59:00,69.0,48.0,30.08,WNW,285,4.0,7.0,47,0.00,,,0.00,VWS V12.07,2013-05-17 18:59:00,
2013-05-17 14:04:00,68.6,48.7,30.08,NE,49,3.0,3.0,49,0.00,,,0.00,VWS V12.07,2013-05-17 19:04:00,
2013-05-17 14:09:00,68.5,48.6,30.08,WSW,252,1.0,7.0,49,0.00,,,0.00,VWS V12.07,2013-05-17 19:09:00,
2013-05-17 14:14:00,69.0,48.5,30.08,NW,311,1.0,7.0,48,0.00,,,0.00,VWS V12.07,2013-05-17 19:14:00,
2013-05-17 14:19:00,69.4,48.9,30.08,NNW,346,7.0,7.0,48,0.00,,,0.00,VWS V12.07,2013-05-17 19:19:00,
2013-05-17 14:24:00,69.5,49.5,30.08,South,187,1.0,7.0,49,0.00,,,0.00,VWS V12.07,2013-05-17 19:24:00,
2013-05-17 14:29:00,69.9,49.3,30.08,SSW,194,1.0,7.0,48,0.00,,,0.00,VWS V12.07,2013-05-17 19:29:00,
2013-05-17 14:39:00,70.1,49.5,30.08,WSW,245,0.0,5.0,48,0.00,,,0.00,VWS V12.07,2013-05-17 19:39:00,
2013-05-17 14:44:00,70.3,49.1,30.08,West,277,1.0,6.0,47,0.00,,,0.00,VWS V12.07,2013-05-17 19:44:00,
2013-05-17 14:49:00,70.6,50.0,30.08,SE,125,1.0,6.0,48,0.00,,,0.00,VWS V12.07,2013-05-17 19:49:00,
2013-05-17 14:54:00,70.7,50.1,30.08,SW,217,0.0,6.0,48,0.00,,,0.00,VWS V12.07,2013-05-17 19:54:00,
2013-05-17 14:59:00,70.9,49.7,30.08,NNW,327,6.0,6.0,47,0.00,,,0.00,VWS V12.07,2013-05-17 19:59:00,
2013-05-17 15:04:00,71.5,50.8,30.07,WSW,254,1.0,6.0,48,0.00,,,0.00,VWS V12.07,2013-05-17 20:04:00,
2013-05-17 15:09:00,71.7,50.4,30.08,ENE,62,1.0,8.0,47,0.00,,,0.00,VWS V12.07,2013-05-17 20:09:00,
2013-05-17 15:14:00,71.7,50.4,30.08,NNE,26,5.0,8.0,47,0.00,,,0.00,VWS V12.07,2013-05-17 20:14:00,
2013-05-17 15:19:00,71.3,51.2,30.08,SSW,209,1.0,9.0,49,0.00,,,0.00,VWS V12.07,2013-05-17 20:19:00,
2013-05-17 15:24:00,70.5,50.4,30.08,NE,35,1.0,9.0,49,0.00,,,0.00,VWS V12.07,2013-05-17 20:24:00,
2013-05-17 15:29:00,69.6,50.7,30.07,SW,231,0.0,9.0,51,0.00,,,0.00,VWS V12.07,2013-05-17 20:29:00,
2013-05-17 15:34:00,69.3,50.4,30.07,NW,306,1.0,5.0,51,0.00,,,0.00,VWS V12.07,2013-05-17 20:34:00,
2013-05-17 15:39:00,69.4,50.5,30.07,West,261,3.0,7.0,51,0.00,,,0.00,VWS V12.07,2013-05-17 20:39:00,
2013-05-17 15:44:00,69.6,51.2,30.07,NE,36,1.0,7.0,52,0.00,,,0.00,VWS V12.07,2013-05-17 20:44:00,
2013-05-17 15:49:00,69.5,50.6,30.07,NNW,341,2.0,7.0,51,0.00,,,0.00,VWS V12.07,2013-05-17 20:49:00,
2013-05-17 15:54:00,69.2,50.8,30.07,West,260,0.0,7.0,52,0.00,,,0.00,VWS V12.07,2013-05-17 20:54:00,
2013-05-17 16:04:00,68.9,51.1,30.07,ENE,59,4.0,4.0,53,0.00,,,0.00,VWS V12.07,2013-05-17 21:04:00,
2013-05-17 16:09:00,68.6,50.8,30.07,NE,36,0.0,4.0,53,0.00,,,0.00,VWS V12.07,2013-05-17 21:09:00,
2013-05-17 16:19:00,67.9,51.2,30.07,NNE,26,3.0,4.0,55,0.00,,,0.00,VWS V12.07,2013-05-17 21:19:00,
2013-05-17 16:24:00,67.6,50.9,30.07,ENE,64,5.0,5.0,55,0.00,,,0.00,VWS V12.07,2013-05-17 21:24:00,
2013-05-17 16:29:00,67.4,50.7,30.07,West,265,0.0,5.0,55,0.00,,,0.00,VWS V12.07,2013-05-17 21:29:00,
2013-05-17 16:34:00,67.5,50.8,30.07,NE,38,1.0,2.0,55,0.00,,,0.00,VWS V12.07,2013-05-17 21:34:00,
2013-05-17 16:39:00,67.6,51.4,30.07,North,360,3.0,4.0,56,0.00,,,0.00,VWS V12.07,2013-05-17 21:39:00,
2013-05-17 16:44:00,67.6,50.9,30.07,WSW,240,1.0,7.0,55,0.00,,,0.00,VWS V12.07,2013-05-17 21:44:00,
2013-05-17 16:49:00,67.5,51.3,30.07,NNE,30,2.0,7.0,56,0.00,,,0.00,VWS V12.07,2013-05-17 21:49:00,
2013-05-17 16:54:00,67.2,51.0,30.08,ESE,123,2.0,7.0,56,0.00,,,0.00,VWS V12.07,2013-05-17 21:54:00,
2013-05-17 16:59:00,67.0,51.3,30.07,SE,136,2.0,7.0,57,0.00,,,0.00,VWS V12.07,2013-05-17 21:59:00,
2013-05-17 17:04:00,67.2,51.5,30.08,NW,304,2.0,5.0,57,0.00,,,0.00,VWS V12.07,2013-05-17 22:04:00,
2013-05-17 17:09:00,67.4,51.2,30.08,SW,225,0.0,6.0,56,0.00,,,0.00,VWS V12.07,2013-05-17 22:09:00,
2013-05-17 17:14:00,67.5,51.3,30.07,SW,227,2.0,6.0,56,0.00,,,0.00,VWS V12.07,2013-05-17 22:14:00,
2013-05-17 17:19:00,67.4,51.2,30.07,North,5,3.0,6.0,56,0.00,,,0.00,VWS V12.07,2013-05-17 22:19:00,
2013-05-17 17:29:00,66.9,51.2,30.08,NNE,22,1.0,9.0,57,0.00,,,0.00,VWS V12.07,2013-05-17 22:29:00,
2013-05-17 17:34:00,66.7,51.0,30.08,South,184,1.0,7.0,57,0.00,,,0.00,VWS V12.07,2013-05-17 22:34:00,
2013-05-17 17:39:00,66.8,51.6,30.08,West,265,0.0,7.0,58,0.00,,,0.00,VWS V12.07,2013-05-17 22:39:00,
2013-05-17 17:44:00,66.8,51.1,30.08,East,80,2.0,7.0,57,0.00,,,0.00,VWS V12.07,2013-05-17 22:44:00,
2013-05-17 17:49:00,66.8,51.6,30.08,West,275,4.0,7.0,58,0.00,,,0.00,VWS V12.07,2013-05-17 22:49:00,
2013-05-17 17:54:00,66.7,51.0,30.08,SW,221,1.0,7.0,57,0.00,,,0.00,VWS V12.07,2013-05-17 22:54:00,
2013-05-17 17:59:00,66.4,51.2,30.08,ENE,59,0.0,7.0,58,0.00,,,0.00,VWS V12.07,2013-05-17 22:59:00,
2013-05-17 18:04:00,66.0,50.8,30.08,North,355,0.0,4.0,58,0.00,,,0.00,VWS V12.07,2013-05-17 23:04:00,
2013-05-17 18:09:00,65.7,51.0,30.08,North,11,0.0,4.0,59,0.00,,,0.00,VWS V12.07,2013-05-17 23:09:00,
2013-05-17 18:14:00,65.7,51.0,30.08,NE,36,3.0,4.0,59,0.00,,,0.00,VWS V12.07,2013-05-17 23:14:00,
2013-05-17 18:19:00,65.7,51.0,30.08,NNW,337,2.0,4.0,59,0.00,,,0.00,VWS V12.07,2013-05-17 23:19:00,
2013-05-17 18:24:00,65.8,51.1,30.08,East,82,1.0,4.0,59,0.00,,,0.00,VWS V12.07,2013-05-17 23:24:00,
2013-05-17 18:29:00,65.7,51.0,30.08,NNW,345,1.0,4.0,59,0.00,,,0.00,VWS V12.07,2013-05-17 23:29:00,
2013-05-17 18:34:00,65.5,51.3,30.08,WSW,246,0.0,3.0,60,0.00,,,0.00,VWS V12.07,2013-05-17 23:34:00,
2013-05-17 18:39:00,65.2,51.0,30.08,South,179,0.0,3.0,60,0.00,,,0.00,VWS V12.07,2013-05-17 23:39:00,
2013-05-17 18:44:00,65.0,51.2,30.08,NE,48,0.0,3.0,61,0.00,,,0.00,VWS V12.07,2013-05-17 23:44:00,
2013-05-17 18:54:00,64.4,51.1,30.08,South,170,3.0,3.0,62,0.00,,,0.00,VWS V12.07,2013-05-17 23:54:00,
2013-05-17 18:59:00,64.1,50.8,30.08,NNE,14,1.0,3.0,62,0.00,,,0.00,VWS V12.07,2013-05-17 23:59:00,
2013-05-17 19:09:00,63.4,50.6,30.08,ENE,71,0.0,4.0,63,0.00,,,0.00,VWS V12.07,2013-05-18 00:09:00,
2013-05-17 19:19:00,62.9,50.5,30.09,North,5,1.0,4.0,64,0.00,,,0.00,VWS V12.07,2013-05-18 00:19:00,
2013-05-17 19:24:00,62.7,50.4,30.09,SW,223,2.0,4.0,64,0.00,,,0.00,VWS V12.07,2013-05-18 00:24:00,
2013-05-17 19:29:00,62.5,50.6,30.09,South,181,0.0,4.0,65,0.00,,,0.00,VWS V12.07,2013-05-18 00:29:00,
2013-05-17 19:34:00,62.4,50.9,30.09,West,266,0.0,3.0,66,0.00,,,0.00,VWS V12.07,2013-05-18 00:34:00,
2013-05-17 19:39:00,62.4,50.9,30.10,ENE,74,1.0,3.0,66,0.00,,,0.00,VWS V12.07,2013-05-18 00:39:00,
2013-05-17 19:44:00,62.3,50.4,30.09,SW,232,1.0,4.0,65,0.00,,,0.00,VWS V12.07,2013-05-18 00:44:00,
2013-05-17 19:54:00,62.1,50.6,30.10,East,94,0.0,4.0,66,0.00,,,0.00,VWS V12.07,2013-05-18 00:54:00,
2013-05-17 19:59:00,61.8,50.3,30.10,West,278,0.0,4.0,66,0.00,,,0.00,VWS V12.07,2013-05-18 00:59:00,
2013-05-17 20:04:00,61.6,50.5,30.10,SSE,150,1.0,1.0,67,0.00,,,0.00,VWS V12.07,2013-05-18 01:04:00,
2013-05-17 20:09:00,61.3,50.7,30.10,NE,42,0.0,3.0,68,0.00,,,0.00,VWS V12.07,2013-05-18 01:09:00,
2013-05-17 20:14:00,61.1,50.5,30.10,NE,39,0.0,3.0,68,0.00,,,0.00,VWS V12.07,2013-05-18 01:14:00,
2013-05-17 20:19:00,60.9,50.3,30.10,South,175,0.0,3.0,68,0.00,,,0.00,VWS V12.07,2013-05-18 01:19:00,
2013-05-17 20:24:00,60.7,50.5,30.10,South,175,0.0,3.0,69,0.00,,,0.00,VWS V12.07,2013-05-18 01:24:00,
2013-05-17 20:34:00,60.2,51.2,30.10,ESE,123,0.0,2.0,72,0.00,,,0.00,VWS V12.07,2013-05-18 01:34:00,
2013-05-17 20:39:00,59.7,51.4,30.11,NE,41,0.0,3.0,74,0.00,,,0.00,VWS V12.07,2013-05-18 01:39:00,
2013-05-17 20:49:00,59.0,51.8,30.11,NE,40,0.0,3.0,77,0.00,,,0.00,VWS V12.07,2013-05-18 01:49:00,
2013-05-17 20:54:00,58.6,52.1,30.11,NE,39,0.0,3.0,79,0.00,,,0.00,VWS V12.07,2013-05-18 01:54:00,
2013-05-17 20:59:00,58.2,52.4,30.12,NE,38,0.0,3.0,81,0.00,,,0.00,VWS V12.07,2013-05-18 01:59:00,
2013-05-17 21:04:00,57.8,52.3,30.12,NNE,19,1.0,2.0,82,0.00,,,0.00,VWS V12.07,2013-05-18 02:04:00,
2013-05-17 21:09:00,57.4,52.3,30.12,NNE,30,0.0,2.0,83,0.00,,,0.00,VWS V12.07,2013-05-18 02:09:00,
2013-05-17 21:14:00,57.0,52.2,30.12,NNE,28,0.0,2.0,84,0.00,,,0.00,VWS V12.07,2013-05-18 02:14:00,
2013-05-17 21:19:00,56.7,52.2,30.12,NNE,28,0.0,2.0,85,0.00,,,0.00,VWS V12.07,2013-05-18 02:19:00,
2013-05-17 21:29:00,56.3,52.2,30.12,NNE,28,0.0,2.0,86,0.00,,,0.00,VWS V12.07,2013-05-18 02:29:00,
2013-05-17 21:34:00,56.2,52.1,30.12,NNE,28,0.0,0.0,86,0.00,,,0.00,VWS V12.07,2013-05-18 02:34:00,
2013-05-17 21:44:00,56.1,52.0,30.12,NNE,28,0.0,1.0,86,0.00,,,0.00,VWS V12.07,2013-05-18 02:44:00,
2013-05-17 21:49:00,56.0,51.9,30.12,NNE,28,0.0,1.0,86,0.00,,,0.00,VWS V12.07,2013-05-18 02:49:00,
2013-05-17 21:54:00,56.0,52.2,30.12,NNE,28,0.0,1.0,87,0.00,,,0.00,VWS V12.07,2013-05-18 02:54:00,
2013-05-17 21:59:00,56.0,52.2,30.12,NNE,28,0.0,1.0,87,0.00,,,0.00,VWS V12.07,2013-05-18 02:59:00,
2013-05-17 22:04:00,56.0,52.2,30.11,NE,44,0.0,2.0,87,0.00,,,0.00,VWS V12.07,2013-05-18 03:04:00,
2013-05-17 22:09:00,56.0,52.2,30.11,NE,44,0.0,2.0,87,0.00,,,0.00,VWS V12.07,2013-05-18 03:09:00,
2013-05-17 22:14:00,56.1,52.3,30.11,NE,44,0.0,2.0,87,0.00,,,0.00,VWS V12.07,2013-05-18 03:14:00,
2013-05-17 22:24:00,56.0,52.2,30.11,ENE,59,1.0,3.0,87,0.00,,,0.00,VWS V12.07,2013-05-18 03:24:00,
2013-05-17 22:29:00,56.0,52.2,30.11,ENE,60,0.0,3.0,87,0.00,,,0.00,VWS V12.07,2013-05-18 03:29:00,
2013-05-17 22:34:00,56.0,51.9,30.11,ENE,60,0.0,1.0,86,0.00,,,0.00,VWS V12.07,2013-05-18 03:34:00,
2013-05-17 22:44:00,55.9,51.8,30.11,NE,38,0.0,2.0,86,0.00,,,0.00,VWS V12.07,2013-05-18 03:44:00,
2013-05-17 22:49:00,55.8,51.7,30.11,West,267,0.0,4.0,86,0.00,,,0.00,VWS V12.07,2013-05-18 03:49:00,
2013-05-17 22:54:00,55.7,51.6,30.11,West,267,1.0,4.0,86,0.00,,,0.00,VWS V12.07,2013-05-18 03:54:00,
2013-05-17 22:59:00,55.7,51.6,30.11,NNE,17,1.0,4.0,86,0.00,,,0.00,VWS V12.07,2013-05-18 03:59:00,
2013-05-17 23:04:00,55.6,51.5,30.11,NE,39,0.0,1.0,86,0.00,,,0.00,VWS V12.07,2013-05-18 04:04:00,
2013-05-17 23:09:00,55.5,51.4,30.11,NNE,33,0.0,3.0,86,0.00,,,0.00,VWS V12.07,2013-05-18 04:09:00,
2013-05-17 23:14:00,55.5,51.4,30.11,NNE,33,0.0,3.0,86,0.00,,,0.00,VWS V12.07,2013-05-18 04:14:00,
2013-05-17 23:24:00,55.2,51.1,30.11,SSE,156,1.0,4.0,86,0.00,,,0.00,VWS V12.07,2013-05-18 04:24:00,
2013-05-17 23:29:00,55.0,50.9,30.11,North,355,4.0,4.0,86,0.00,,,0.00,VWS V12.07,2013-05-18 04:29:00,
2013-05-17 23:34:00,54.8,50.7,30.11,NE,34,1.0,1.0,86,0.00,,,0.00,VWS V12.07,2013-05-18 04:34:00,
2013-05-17 23:39:00,54.6,50.5,30.11,NE,35,1.0,1.0,86,0.00,,,0.00,VWS V12.07,2013-05-18 04:39:00,
2013-05-17 23:44:00,54.5,50.4,30.11,NNW,347,1.0,4.0,86,0.00,,,0.00,VWS V12.07,2013-05-18 04:44:00,
2013-05-17 23:49:00,54.4,50.3,30.11,SE,132,1.0,4.0,86,0.00,,,0.00,VWS V12.07,2013-05-18 04:49:00,
2013-05-17 23:54:00,54.2,50.1,30.11,South,178,0.0,4.0,86,0.00,,,0.00,VWS V12.07,2013-05-18 04:54:00,